Madison, MN

9:10 PM CST on December 11, 2017 (GMT -0600)
Madison-Lac Qui Parle County

Weather History for KDXX - June, 2014

Change the Weather History Date:

Wednesday, June 4, 2014

  Actual Average (KAQP) Record (KAQP)
Temperature  
Mean Temperature 70 °F -  
Max Temperature 80 °F 72 °F 93 °F (1999)
Min Temperature 59 °F 51 °F 39 °F (1998)
Cooling Degree Days 4    
Growing Degree Days 20 (Base 50)    
Moisture  
Dew Point 55 °F    
Average Humidity 61    
Maximum Humidity 94    
Minimum Humidity 34    
Precipitation  
Precipitation 0.00 in - - ()
Sea Level Pressure  
Sea Level Pressure 29.88 in    
Wind  
Wind Speed 4 mph (East)    
Max Wind Speed 7 mph    
Max Gust Speed -    
Visibility 10 miles    
Events      
Averages and records for this station are not official NWS values.
T = Trace of Precipitation, MM = Missing Value Source: NWS Daily Summary

Daily Weather History Graph

Daily Weather History Graph

Search for Another Location

Airport or City:

Trip Planner

Search our weather history database for the weather conditions in past years. The results will help you decide how hot, cold, wet, or windy it might be!

Date:

Astronomy

Jun. 04, 2014 Rise Set
Actual Time 5:39 AM CDT 9:06 PM CDT
Civil Twilight 5:03 AM CDT 9:43 PM CDT
Nautical Twilight 4:15 AM CDT 10:31 PM CDT
Astronomical Twilight 3:13 AM CDT 11:33 PM CDT
Moon 12:12 PM CDT (6/4) 12:54 AM CDT (6/4)
Length of Visible Light 16h 40m
Length of Day
15h 26m
Waxing Crescent, 39% of the Moon is Illuminated
Jun 4
Waxing Crescent
Jun 5
First Quarter
Jun 12
Full
Jun 19
Last Quarter
Jun 27
New

Hourly Weather History & Observations

Time (CDT) Temp. Heat Index Dew Point Humidity Pressure Visibility Wind Dir Wind Speed Gust Speed Precip Events Conditions
12:14 AM 64.4 °F - 59.0 °F 83% 29.82 in 10.0 mi East 4.6 mph - N/A   Scattered Clouds
12:33 AM 62.6 °F - 57.2 °F 82% 29.82 in 10.0 mi East 4.6 mph - N/A   Scattered Clouds
12:54 AM 62.6 °F - 57.2 °F 82% 29.83 in 10.0 mi East 3.5 mph - N/A   Clear
1:14 AM 62.6 °F - 59.0 °F 88% 29.83 in 10.0 mi ENE 3.5 mph - N/A   Clear
1:33 AM 60.8 °F - 57.2 °F 88% 29.83 in 10.0 mi NE 4.6 mph - N/A   Clear
1:54 AM 60.8 °F - 57.2 °F 88% 29.83 in 10.0 mi NE 5.8 mph - N/A   Clear
2:14 AM 60.8 °F - 57.2 °F 88% 29.84 in 10.0 mi NE 4.6 mph - N/A   Clear
2:33 AM 60.8 °F - 57.2 °F 88% 29.85 in 10.0 mi North 4.6 mph - N/A   Clear
2:54 AM 60.8 °F - 57.2 °F 88% 29.86 in 10.0 mi NNE 4.6 mph - N/A   Clear
3:14 AM 60.8 °F - 57.2 °F 88% 29.86 in 10.0 mi NNE 5.8 mph - N/A   Clear
3:33 AM 60.8 °F - 57.2 °F 88% 29.87 in 10.0 mi NNE 4.6 mph - N/A   Clear
3:54 AM 59.0 °F - 57.2 °F 94% 29.87 in 10.0 mi North 6.9 mph - N/A   Clear
4:13 AM 60.8 °F - 57.2 °F 88% 29.87 in 10.0 mi North 5.8 mph - N/A   Clear
4:34 AM 60.8 °F - 57.2 °F 88% 29.87 in 10.0 mi North 5.8 mph - N/A   Clear
4:54 AM 59.0 °F - 57.2 °F 94% 29.88 in 10.0 mi North 5.8 mph - N/A   Clear
5:13 AM 59.0 °F - 55.4 °F 88% 29.88 in 10.0 mi North 4.6 mph - N/A   Clear
5:34 AM 59.0 °F - 55.4 °F 88% 29.88 in 7.0 mi North 5.8 mph - N/A   Clear
5:54 AM 59.0 °F - 55.4 °F 88% 29.88 in 7.0 mi North 4.6 mph - N/A   Clear
6:13 AM 59.0 °F - 55.4 °F 88% 29.88 in 7.0 mi NNE 3.5 mph - N/A   Clear
6:34 AM 60.8 °F - 57.2 °F 88% 29.88 in 7.0 mi Calm Calm - N/A   Clear
6:54 AM 62.6 °F - 59.0 °F 88% 29.88 in 10.0 mi Calm Calm - N/A   Clear
7:13 AM 62.6 °F - 59.0 °F 88% 29.89 in 10.0 mi Calm Calm - N/A   Clear
7:33 AM 64.4 °F - 57.2 °F 77% 29.89 in 10.0 mi Calm Calm - N/A   Clear
7:54 AM 64.4 °F - 59.0 °F 83% 29.89 in 10.0 mi Calm Calm - N/A   Clear
8:13 AM 66.2 °F - 59.0 °F 78% 29.90 in 10.0 mi Calm Calm - N/A   Clear
8:33 AM 69.8 °F - 59.0 °F 68% 29.90 in 10.0 mi Calm Calm - N/A   Clear
8:54 AM 69.8 °F - 59.0 °F 68% 29.91 in 10.0 mi Calm Calm - N/A   Clear
9:13 AM 71.6 °F - 57.2 °F 60% 29.91 in 10.0 mi NNE 4.6 mph - N/A   Clear
9:33 AM 71.6 °F - 57.2 °F 60% 29.92 in 10.0 mi NE 4.6 mph - N/A   Clear
9:54 AM 73.4 °F - 55.4 °F 53% 29.92 in 10.0 mi ENE 4.6 mph - N/A   Clear
10:13 AM 73.4 °F - 57.2 °F 57% 29.92 in 10.0 mi ENE 5.8 mph - N/A   Clear
10:34 AM 73.4 °F - 55.4 °F 53% 29.92 in 10.0 mi SE 4.6 mph - N/A   Clear
10:54 AM 73.4 °F - 55.4 °F 53% 29.91 in 10.0 mi NE 4.6 mph - N/A   Clear
11:13 AM 75.2 °F - 55.4 °F 50% 29.91 in 10.0 mi Calm Calm - N/A   Clear
11:34 AM 75.2 °F - 55.4 °F 50% 29.92 in 10.0 mi East 5.8 mph - N/A   Clear
11:54 AM 75.2 °F - 55.4 °F 50% 29.92 in 10.0 mi ENE 3.5 mph - N/A   Clear
12:13 PM 75.2 °F - 57.2 °F 53% 29.92 in 10.0 mi East 5.8 mph - N/A   Scattered Clouds
12:34 PM 73.4 °F - 55.4 °F 53% 29.92 in 10.0 mi Calm Calm - N/A   Scattered Clouds
12:54 PM 77.0 °F - 55.4 °F 47% 29.92 in 10.0 mi ESE 3.5 mph - N/A   Scattered Clouds
1:13 PM 77.0 °F - 55.4 °F 47% 29.91 in 10.0 mi Calm Calm - N/A   Scattered Clouds
1:34 PM 78.8 °F - 55.4 °F 44% 29.91 in 10.0 mi Calm Calm - N/A   Scattered Clouds
1:54 PM 78.8 °F - 55.4 °F 44% 29.90 in 10.0 mi East 5.8 mph - N/A   Scattered Clouds
2:13 PM 78.8 °F - 55.4 °F 44% 29.90 in 10.0 mi East 5.8 mph - N/A   Scattered Clouds
2:34 PM 75.2 °F - 53.6 °F 47% 29.90 in 10.0 mi East 6.9 mph - N/A   Scattered Clouds
2:54 PM 78.8 °F - 51.8 °F 39% 29.89 in 10.0 mi Calm Calm - N/A   Scattered Clouds
3:13 PM 80.6 °F - 51.8 °F 37% 29.89 in 10.0 mi South 4.6 mph - N/A   Clear
3:34 PM 80.6 °F 80.5 °F 55.4 °F 42% 29.89 in 10.0 mi ESE 3.5 mph - N/A   Scattered Clouds
3:54 PM 80.6 °F 80.3 °F 53.6 °F 39% 29.89 in 10.0 mi Calm Calm - N/A   Clear
4:13 PM 80.6 °F - 51.8 °F 37% 29.88 in 10.0 mi Calm Calm - N/A   Clear
4:34 PM 78.8 °F - 51.8 °F 39% 29.87 in 10.0 mi SE 4.6 mph - N/A   Clear
4:54 PM 80.6 °F - 51.8 °F 37% 29.87 in 10.0 mi Calm Calm - N/A   Clear
5:13 PM 78.8 °F - 51.8 °F 39% 29.86 in 10.0 mi ESE 5.8 mph - N/A   Clear
5:34 PM 80.6 °F - 51.8 °F 37% 29.86 in 10.0 mi Calm Calm - N/A   Clear
5:54 PM 80.6 °F - 50.0 °F 34% 29.85 in 10.0 mi SSE 5.8 mph - N/A   Scattered Clouds
6:13 PM 80.6 °F 80.5 °F 55.4 °F 42% 29.85 in 10.0 mi East 5.8 mph - N/A   Scattered Clouds
6:34 PM 78.8 °F - 53.6 °F 42% 29.85 in 10.0 mi ESE 3.5 mph - N/A   Clear
6:54 PM 80.6 °F - 50.0 °F 34% 29.84 in 10.0 mi Calm Calm - N/A   Clear
7:13 PM 78.8 °F - 51.8 °F 39% 29.84 in 10.0 mi SSE 5.8 mph - N/A   Scattered Clouds
7:34 PM 77.0 °F - 51.8 °F 41% 29.85 in 10.0 mi SE 5.8 mph - N/A   Scattered Clouds
7:54 PM 77.0 °F - 51.8 °F 41% 29.84 in 10.0 mi SE 3.5 mph - N/A   Clear
8:13 PM 78.8 °F - 50.0 °F 36% 29.85 in 10.0 mi South 3.5 mph - N/A   Clear
8:34 PM 77.0 °F - 51.8 °F 41% 29.85 in 10.0 mi Calm Calm - N/A   Clear
8:54 PM 77.0 °F - 51.8 °F 41% 29.86 in 10.0 mi Calm Calm - N/A   Clear
9:13 PM 75.2 °F - 48.2 °F 38% 29.86 in 10.0 mi Calm Calm - N/A   Clear
9:33 PM 73.4 °F - 51.8 °F 47% 29.86 in 10.0 mi Calm Calm - N/A   Clear
10:13 PM 71.6 °F - 55.4 °F 57% 29.87 in 10.0 mi Calm Calm - N/A   Clear
10:34 PM 71.6 °F - 55.4 °F 57% 29.87 in 10.0 mi SE 4.6 mph - N/A   Clear
10:53 PM 69.8 °F - 55.4 °F 60% 29.87 in 10.0 mi SSE 4.6 mph - N/A   Clear
11:13 PM 69.8 °F - 55.4 °F 60% 29.88 in 10.0 mi SSE 3.5 mph - N/A   Clear
11:34 PM 69.8 °F - 53.6 °F 56% 29.88 in 10.0 mi SSE 5.8 mph - N/A   Clear
11:53 PM 69.8 °F - 55.4 °F 60% 29.87 in 10.0 mi SSE 5.8 mph - N/A   Clear